Погода в Кардиффе

Великобритания     51°29′03″N   3°10′36″W
темп.,
°C
ветер,
м/с
пор.,
м/с
влажн.,
%
обл.,
%
осадки,
мм/ч
давл.,
гПа
погр.,
м
21 июня, пн
пн2101:00+12св61184100 0.0 1010531
04:00+12св71283100 0.0 1010554
07:00+11св61281100 0.0 1011613
10:00+13св81273100 0.0 1013829
13:00+15св61068100 0.0 10131199
16:00+14всв4980100 0.4 10141055
19:00+14всв4883100 0.9 1016610
22:00+12ссв71191100 0.3 1018508
22 июня, вт
вт2201:00+11св71392100 1.4 1019680
04:00+10ссв61289100 0.8 1020512
07:00+10ссв7138489 0.8 1021659
10:00+13св81168100 0.0 10221061
13:00+16св795672 0.0 10221576
16:00+17св57556 0.0 10231704
19:00+17св356618 0.0 10231016
22:00+12ссз33816 0.0 102432
23 июня, ср
ср2301:00+10ссв33870 0.0 102545
04:00+8ссв22900 0.0 102528
07:00+11с11824 0.0 102592
10:00+16в01655 0.0 1025800
13:00+18ююв22575 0.0 10241383
16:00+18юз23595 0.0 10241296
19:00+17з226919 0.0 1023414
22:00+12сз228964 0.0 102424
24 июня, чт
чт2401:00+11св229148 0.0 102526
04:00+10ссв12925 0.0 102423
07:00+12ссв00866 0.0 102487
10:00+16зюз127590 0.0 1023553
13:00+19юз337170 0.0 10221019
16:00+18з447879 0.0 1022571
19:00+17з4686100 0.0 1020401
22:00+15з4795100 0.0 1020159
25 июня, пт
пт2501:00+14зюз4798100 0.0 1018285
04:00+14зюз4998100 1.0 1016459
07:00+13зюз61098100 4.9 1014581
10:00+14з358797 0.6 1013598
13:00+14зюз458749 0.9 1013512
16:00+16зюз77742 0.3 1012904
19:00+13зюз56730 0.3 1013669
22:00+9с11874 0.0 101421